This is the latest recevied weather packets stored in our database for station/object YO3FNC-10. If no packets are shown the sender has not sent any weather packets the latest 10 day(s).
| Time | Temp. | Humidity | Pressure | Rain* | Wind** | Luminosity | Snow |
|---|---|---|---|---|---|---|---|
| 1787740119 | 30° C | 42% | 1016.5 hPa | - | - | - | - |
| 1787739219 | 29.44° C | 43% | 1016.7 hPa | - | - | - | - |
| 1787738319 | 28.89° C | 44% | 1016.7 hPa | - | - | - | - |
| 1787737419 | 28.89° C | 45% | 1016.9 hPa | - | - | - | - |
| 1787736519 | 28.33° C | 46% | 1016.8 hPa | - | - | - | - |
| 1787735618 | 28.33° C | 45% | 1016.9 hPa | - | - | - | - |
| 1787734718 | 28.89° C | 46% | 1016.9 hPa | - | - | - | - |
| 1787733818 | 28.89° C | 45% | 1017 hPa | - | - | - | - |
| 1787732918 | 28.33° C | 44% | 1016.8 hPa | - | - | - | - |
| 1787732018 | 28.89° C | 45% | 1017 hPa | - | - | - | - |
| 1787731118 | 28.89° C | 44% | 1016.8 hPa | - | - | - | - |
| 1787730220 | 28.89° C | 44% | 1016.8 hPa | - | - | - | - |
| 1787729317 | 29.44° C | 42% | 1016.7 hPa | - | - | - | - |
| 1787728417 | 30° C | 41% | 1016.3 hPa | - | - | - | - |
| 1787727517 | 30.56° C | 39% | 1016.4 hPa | - | - | - | - |
| 1787726611 | 30.56° C | 39% | 1016.4 hPa | - | - | - | - |
| 1787725711 | 30.56° C | 39% | 1016.1 hPa | - | - | - | - |
| 1787724811 | 30.56° C | 39% | 1016.3 hPa | - | - | - | - |
| 1787723911 | 30.56° C | 39% | 1016.3 hPa | - | - | - | - |
| 1787723011 | 30.56° C | 39% | 1016.3 hPa | - | - | - | - |
| 1787722111 | 30.56° C | 39% | 1015.8 hPa | - | - | - | - |
| 1787721211 | 30.56° C | 39% | 1015.5 hPa | - | - | - | - |
| 1787720311 | 30° C | 39% | 1015.6 hPa | - | - | - | - |
| 1787719410 | 30° C | 39% | 1015.1 hPa | - | - | - | - |
| 1787718510 | 30° C | 39% | 1015 hPa | - | - | - | - |
* Rain since midnight (hover to see other rain measurements)
** Current wind speed in m/s (hover to see current wind gust speed)